EW5236 Weather Reports


time (UTC)temp
F
wind
direction
speed
knots
gust
knots
rain 1hr
in
rain 24hr
in
rain mn
in
humidity
%
barometer
mb
20260507041605 41 284 0.0 1.7 0.00 0.00 0.00 89 1014.5
20260507040056 41 284 0.0 0.9 0.00 0.00 0.00 89 1014.4
20260507034553 41 284 0.0 1.7 0.00 0.00 0.00 88 1014.3
20260507033052 42 284 0.0 1.7 0.00 0.00 0.00 88 1014.2
20260507031549 42 284 0.0 1.7 0.00 0.00 0.00 88 1014.1
20260507030046 42 284 0.0 1.7 0.00 0.00 0.00 88 1014.0
20260507024551 42 283 0.0 1.7 0.00 0.00 0.00 88 1014.0
20260507023043 42 284 0.0 1.7 0.00 0.00 0.00 87 1013.9
20260507021542 42 284 0.0 2.6 0.00 0.00 0.00 87 1013.7
20260507020054 42 284 0.0 1.7 0.00 0.00 0.00 87 1013.7
20260507014547 43 281 0.0 0.9 0.00 0.00 0.00 86 1013.6
20260507013044 43 281 0.0 2.6 0.00 0.00 0.00 86 1013.5
20260507011541 43 279 0.0 1.7 0.00 0.00 0.00 85 1013.5
20260507010041 44 288 0.0 1.7 0.00 0.00 0.00 86 1013.4
20260507004530 44 298 0.0 2.6 0.00 0.00 0.00 86 1013.4
20260507003029 44 290 0.9 2.6 0.00 0.00 0.00 86 1013.3
20260507001537 44 259 0.0 2.6 0.00 0.00 0.00 85 1013.3
20260507000031 44 327 0.0 2.6 0.00 0.00 0.00 85 1013.4
20260506234523 44 19 0.0 2.6 0.00 0.00 0.00 85 1013.4
20260506233022 44 301 0.0 3.5 0.00 0.00 0.00 84 1013.3
20260506231520 45 294 0.0 1.7 0.00 0.00 0.00 84 1013.3
20260506230019 45 302 0.0 1.7 0.00 0.00 0.00 84 1013.4
20260506224517 45 302 0.0 2.6 0.00 0.00 0.00 84 1013.3
20260506223014 45 266 0.9 3.5 0.00 0.00 0.00 83 1013.2
20260506221512 46 326 0.9 3.5 0.00 0.00 0.00 82 1013.1
20260506220008 46 328 0.9 2.6 0.00 0.00 0.00 81 1013.1
20260506214506 47 319 0.9 2.6 0.00 0.00 0.00 80 1013.1
20260506213004 47 323 0.9 3.5 0.00 0.00 0.00 79 1012.9
20260506211501 48 334 0.9 4.3 0.00 0.00 0.00 78 1012.8
20260506210058 49 346 0.0 3.5 0.00 0.00 0.00 76 1012.7
20260506204558 49 344 0.0 3.5 0.00 0.00 0.00 75 1012.6
20260506203058 50 340 0.0 2.6 0.00 0.00 0.00 74 1012.6
20260506201556 50 325 0.9 4.3 0.00 0.00 0.00 73 1012.5
20260506200054 51 309 0.0 3.5 0.00 0.00 0.00 72 1012.4
20260506194553 51 336 0.9 3.5 0.00 0.00 0.00 71 1012.2
20260506193056 52 22 0.9 3.5 0.00 0.00 0.00 71 1012.0
20260506191551 52 309 0.9 4.3 0.00 0.00 0.00 72 1011.8
20260506190046 52 315 0.9 3.5 0.00 0.00 0.00 73 1011.4
20260506184544 53 119 0.0 1.7 0.00 0.00 0.00 73 1011.4
20260506183043 53 119 0.0 0.9 0.00 0.00 0.00 72 1011.2
20260506181555 53 119 0.0 1.7 0.00 0.00 0.00 71 1011.0
20260506180038 53 119 0.0 2.6 0.00 0.00 0.00 71 1010.9
20260506174538 53 119 0.0 2.6 0.00 0.00 0.00 71 1010.7
20260506173102 54 119 0.9 2.6 0.00 0.00 0.00 69 1010.5
20260506171541 54 121 0.0 2.6 0.00 0.00 0.00 68 1010.5
20260506170050 55 95 0.0 1.7 0.00 0.00 0.00 67 1010.3
20260506164532 55 95 0.0 0.9 0.00 0.00 0.00 65 1010.4
20260506163034 55 95 0.9 2.6 0.00 0.00 0.00 65 1010.3
20260506161529 55 86 0.0 2.6 0.00 0.00 0.00 66 1010.3
20260506160025 54 88 0.0 2.6 0.00 0.00 0.00 67 1010.3
20260506154505 54 91 0.9 5.2 0.00 0.00 0.00 65 1010.4
20260506153004 54 82 0.9 2.6 0.00 0.00 0.00 66 1010.4
20260506151507 55 78 1.7 5.2 0.00 0.00 0.00 64 1010.2
20260506150005 55 143 0.9 3.5 0.00 0.00 0.00 65 1010.2
20260506144501 55 86 2.6 6.1 0.00 0.00 0.00 63 1010.1
20260506143100 55 88 1.7 7.0 0.00 0.00 0.00 62 1010.1
20260506141602 55 87 0.9 7.8 0.00 0.00 0.00 63 1010.1
20260506140058 54 74 2.6 7.0 0.00 0.00 0.00 61 1010.1
20260506134557 54 93 1.7 10.4 0.00 0.00 0.00 62 1010.1
20260506133114 54 80 3.5 12.2 0.00 0.00 0.00 61 1010.1
20260506131553 53 93 2.6 10.4 0.00 0.00 0.00 62 1010.1
20260506130110 53 77 5.2 13.0 0.00 0.00 0.00 63 1010.1
20260506124552 53 96 2.6 7.8 0.00 0.00 0.00 65 1010.1
20260506123051 53 215 0.9 7.0 0.00 0.00 0.00 64 1010.0
20260506121550 53 107 1.7 8.7 0.00 0.00 0.00 64 1009.9
20260506120049 53 101 2.6 7.0 0.00 0.00 0.00 67 1009.8
20260506114550 53 92 2.6 11.3 0.00 0.00 0.00 67 1009.8
20260506113048 53 90 3.5 9.6 0.00 0.00 0.00 63 1009.8
20260506111547 53 96 3.5 9.6 0.00 0.00 0.00 61 1009.7
20260506110047 53 98 2.6 10.4 0.00 0.00 0.00 64 1009.7
20260506104607 53 66 1.7 7.0 0.00 0.00 0.00 68 1009.5
20260506103042 52 86 1.7 13.0 0.00 0.00 0.00 65 1009.6
20260506101541 52 71 3.5 15.6 0.00 0.00 0.00 62 1009.6
20260506100043 52 88 5.2 16.5 0.00 0.00 0.00 57 1009.5
20260506094538 52 94 3.5 11.3 0.00 0.00 0.00 59 1009.4
20260506093035 52 67 4.3 15.6 0.00 0.00 0.00 61 1009.3
20260506091534 52 39 1.7 7.0 0.00 0.00 0.00 65 1009.3
20260506090040 52 123 0.9 7.0 0.00 0.00 0.00 68 1009.2
20260506084528 52 111 3.5 10.4 0.00 0.00 0.00 70 1009.1
20260506083035 51 59 2.6 9.6 0.00 0.00 0.00 73 1009.1
20260506081520 51 54 2.6 8.7 0.00 0.00 0.00 74 1009.0
20260506073015 50 113 0.0 5.2 0.00 0.00 0.00 78 1008.8
20260506071513 50 58 1.7 4.3 0.00 0.00 0.00 78 1008.8
20260506061504 49 46 1.7 5.2 0.00 0.00 0.00 80 1008.5
20260506044608 48 83 0.0 3.5 0.00 0.00 0.00 84 1008.2
20260506043056 48 327 0.9 2.6 0.00 0.00 0.00 84 1008.2